TimeCDT,TemperatureF,Dew PointF,Humidity,Sea Level PressureIn,VisibilityMPH,Wind Direction,Wind SpeedMPH,Gust SpeedMPH,PrecipitationIn,Events,Conditions,WindDirDegrees,DateUTC
12:13 AM,71.6,62.6,73,30.06,10.0,East,17.3,21.9,N/A,,Clear,80,2013-09-08 05:13:00
12:33 AM,69.8,60.8,73,30.06,10.0,East,16.1,21.9,N/A,,Clear,80,2013-09-08 05:33:00
12:53 AM,69.8,57.2,64,30.06,10.0,East,17.3,25.3,N/A,,Clear,90,2013-09-08 05:53:00
1:13 AM,66.2,57.2,73,30.06,10.0,East,11.5,19.6,N/A,,Scattered Clouds,80,2013-09-08 06:13:00
1:34 AM,66.2,57.2,73,30.06,10.0,ENE,9.2,-,N/A,,Clear,70,2013-09-08 06:34:00
1:53 AM,64.4,57.2,77,30.06,10.0,East,13.8,-,N/A,,Clear,80,2013-09-08 06:53:00
2:13 AM,64.4,55.4,73,30.06,10.0,ENE,10.4,-,N/A,,Clear,70,2013-09-08 07:13:00
2:33 AM,64.4,55.4,73,30.05,10.0,East,13.8,-,N/A,,Clear,80,2013-09-08 07:33:00
2:53 AM,64.4,53.6,68,30.05,10.0,East,12.7,-,N/A,,Clear,80,2013-09-08 07:53:00
3:14 AM,64.4,53.6,68,30.05,10.0,ENE,10.4,-,N/A,,Clear,70,2013-09-08 08:14:00
3:33 AM,62.6,53.6,72,30.04,10.0,ENE,11.5,-,N/A,,Clear,70,2013-09-08 08:33:00
3:53 AM,62.6,53.6,72,30.04,10.0,ENE,10.4,-,N/A,,Clear,70,2013-09-08 08:53:00
4:13 AM,62.6,53.6,72,30.05,10.0,ENE,10.4,-,N/A,,Scattered Clouds,70,2013-09-08 09:13:00
4:33 AM,62.6,53.6,72,30.05,10.0,ENE,10.4,-,N/A,,Scattered Clouds,70,2013-09-08 09:33:00
4:53 AM,62.6,55.4,77,30.05,10.0,ENE,10.4,-,N/A,,Scattered Clouds,70,2013-09-08 09:53:00
5:13 AM,62.6,55.4,77,30.05,10.0,East,10.4,-,N/A,,Clear,80,2013-09-08 10:13:00
5:33 AM,62.6,55.4,77,30.05,10.0,East,11.5,-,N/A,,Clear,80,2013-09-08 10:33:00
5:53 AM,62.6,55.4,77,30.04,10.0,East,12.7,-,N/A,,Scattered Clouds,90,2013-09-08 10:53:00
6:13 AM,62.6,55.4,77,30.05,10.0,East,11.5,-,N/A,Rain,Light Rain,90,2013-09-08 11:13:00
6:33 AM,62.6,55.4,77,30.04,10.0,East,11.5,-,N/A,,Scattered Clouds,100,2013-09-08 11:33:00
6:53 AM,62.6,55.4,77,30.04,10.0,East,9.2,-,N/A,Thunderstorm,Scattered Clouds,90,2013-09-08 11:53:00
7:14 AM,62.6,55.4,77,30.05,10.0,East,9.2,-,N/A,,Scattered Clouds,90,2013-09-08 12:14:00
7:33 AM,62.6,55.4,77,30.06,10.0,East,10.4,-,N/A,,Scattered Clouds,100,2013-09-08 12:33:00
7:53 AM,62.6,53.6,72,30.05,10.0,East,9.2,-,N/A,,Scattered Clouds,90,2013-09-08 12:53:00
8:13 AM,62.6,53.6,72,30.05,10.0,ENE,10.4,-,N/A,,Mostly Cloudy,70,2013-09-08 13:13:00
8:33 AM,62.6,53.6,72,30.05,10.0,ENE,10.4,-,N/A,,Overcast,70,2013-09-08 13:33:00
8:53 AM,62.6,53.6,72,30.04,10.0,ENE,13.8,-,N/A,,Overcast,70,2013-09-08 13:53:00
9:13 AM,62.6,53.6,72,30.05,10.0,ENE,10.4,-,N/A,Thunderstorm,Overcast,70,2013-09-08 14:13:00
9:33 AM,62.6,53.6,72,30.05,10.0,ENE,11.5,16.1,N/A,,Mostly Cloudy,70,2013-09-08 14:33:00
9:53 AM,60.8,53.6,77,30.05,10.0,ENE,11.5,-,N/A,,Scattered Clouds,70,2013-09-08 14:53:00
10:13 AM,60.8,53.6,77,30.07,10.0,ENE,11.5,-,N/A,Rain,Light Rain,60,2013-09-08 15:13:00
10:33 AM,59.0,55.4,88,30.07,10.0,ENE,8.1,-,N/A,,Light Drizzle,70,2013-09-08 15:33:00
10:53 AM,60.8,55.4,82,30.06,10.0,East,9.2,-,N/A,,Overcast,90,2013-09-08 15:53:00
11:14 AM,60.8,55.4,82,30.04,10.0,East,9.2,-,N/A,,Light Drizzle,90,2013-09-08 16:14:00
11:33 AM,59.0,55.4,88,30.04,10.0,East,11.5,-,N/A,Rain,Light Rain,90,2013-09-08 16:33:00
11:54 AM,60.8,57.2,88,30.05,10.0,East,6.9,-,0.01,Rain,Rain,100,2013-09-08 16:54:00
12:13 PM,60.8,57.2,88,30.04,10.0,East,4.6,-,N/A,,Drizzle,90,2013-09-08 17:13:00
12:33 PM,60.8,57.2,88,30.02,10.0,East,8.1,-,N/A,Rain,Rain,100,2013-09-08 17:33:00
12:53 PM,60.8,59.0,94,30.02,10.0,ESE,10.4,-,0.01,Rain,Light Rain,120,2013-09-08 17:53:00
1:13 PM,62.6,59.0,88,30.01,10.0,East,9.2,-,N/A,Rain,Light Rain,100,2013-09-08 18:13:00
1:34 PM,62.6,59.0,88,30.02,10.0,ENE,5.8,-,N/A,,Drizzle,70,2013-09-08 18:34:00
1:53 PM,62.6,60.8,94,30.01,10.0,NE,8.1,-,N/A,,Overcast,40,2013-09-08 18:53:00
2:13 PM,62.6,60.8,94,30.01,10.0,NE,9.2,-,0.01,,Overcast,50,2013-09-08 19:13:00
2:33 PM,62.6,59.0,88,29.99,10.0,ENE,8.1,-,0.01,,Overcast,60,2013-09-08 19:33:00
2:53 PM,62.6,60.8,94,29.99,10.0,ENE,10.4,-,0.01,,Light Drizzle,60,2013-09-08 19:53:00
3:13 PM,62.6,60.8,94,29.97,10.0,ENE,10.4,-,N/A,,Overcast,70,2013-09-08 20:13:00
3:33 PM,62.6,60.8,94,29.97,10.0,East,10.4,-,N/A,,Overcast,80,2013-09-08 20:33:00
3:53 PM,62.6,60.8,94,29.96,10.0,East,10.4,-,N/A,,Overcast,80,2013-09-08 20:53:00
4:13 PM,64.4,60.8,88,29.97,10.0,ENE,10.4,-,N/A,,Overcast,70,2013-09-08 21:13:00
4:33 PM,62.6,60.8,94,29.97,10.0,ENE,9.2,-,N/A,,Overcast,70,2013-09-08 21:33:00
4:53 PM,62.6,59.0,88,29.97,10.0,ENE,11.5,-,N/A,Rain,Light Rain,70,2013-09-08 21:53:00
5:13 PM,62.6,59.0,88,29.95,10.0,East,8.1,-,N/A,,Light Drizzle,90,2013-09-08 22:13:00
5:33 PM,62.6,59.0,88,29.95,10.0,East,8.1,-,N/A,,Overcast,80,2013-09-08 22:33:00
5:53 PM,62.6,59.0,88,29.95,10.0,East,10.4,-,N/A,,Overcast,80,2013-09-08 22:53:00
6:13 PM,62.6,59.0,88,29.95,10.0,East,10.4,-,N/A,,Overcast,80,2013-09-08 23:13:00
6:33 PM,62.6,59.0,88,29.94,7.0,East,6.9,-,N/A,,Overcast,90,2013-09-08 23:33:00
6:53 PM,62.6,59.0,88,29.93,7.0,East,8.1,-,N/A,,Overcast,90,2013-09-08 23:53:00
7:13 PM,62.6,59.0,88,29.92,7.0,East,10.4,-,N/A,,Overcast,90,2013-09-09 00:13:00
7:33 PM,62.6,59.0,88,29.92,7.0,ESE,8.1,-,N/A,,Overcast,110,2013-09-09 00:33:00
7:53 PM,62.6,59.0,88,29.92,10.0,East,6.9,-,N/A,,Overcast,100,2013-09-09 00:53:00
8:13 PM,62.6,59.0,88,29.92,10.0,East,6.9,-,N/A,,Overcast,90,2013-09-09 01:13:00
8:33 PM,62.6,59.0,88,29.92,10.0,East,8.1,-,N/A,,Overcast,100,2013-09-09 01:33:00
8:53 PM,62.6,59.0,88,29.92,10.0,East,8.1,-,N/A,,Mostly Cloudy,100,2013-09-09 01:53:00
9:13 PM,62.6,59.0,88,29.91,10.0,ESE,6.9,-,N/A,,Mostly Cloudy,110,2013-09-09 02:13:00
9:33 PM,62.6,59.0,88,29.91,10.0,East,6.9,-,N/A,,Mostly Cloudy,90,2013-09-09 02:33:00
9:53 PM,62.6,57.2,82,29.90,10.0,East,8.1,-,N/A,,Mostly Cloudy,100,2013-09-09 02:53:00
10:13 PM,62.6,57.2,82,29.90,10.0,East,8.1,-,N/A,,Mostly Cloudy,80,2013-09-09 03:13:00
10:34 PM,62.6,59.0,88,29.90,10.0,East,8.1,-,N/A,,Overcast,100,2013-09-09 03:34:00
10:53 PM,62.6,59.0,88,29.90,10.0,East,6.9,-,N/A,,Mostly Cloudy,100,2013-09-09 03:53:00
11:13 PM,62.6,57.2,82,29.89,10.0,East,6.9,-,N/A,,Mostly Cloudy,90,2013-09-09 04:13:00
11:33 PM,62.6,57.2,82,29.89,10.0,East,5.8,-,N/A,,Scattered Clouds,100,2013-09-09 04:33:00
11:53 PM,62.6,57.2,82,29.89,10.0,East,4.6,-,N/A,,Scattered Clouds,100,2013-09-09 04:53:00